Location: Newark
(49.2191°N, 12.6671°E)
Time: 03:22:44
(UTC+00:00)

Transit 2A Rocket - Visible Passes

Search period start: 28 January 2020 00:00
Search period end: 07 February 2020 00:00
Orbit: 593 x 910 km, 66.7° (Epoch: 27 January)

Date Brightness Start Highest point End Pass type
(mag) Time Alt. Az. Time Alt. Az. Time Alt. Az.
28 Jan 5.6 03:50:42 43° ENE 03:50:42 43° ENE 03:53:54 10° NE visible
28 Jan 5.7 05:30:38 19° WNW 05:32:28 25° NW 05:36:09 10° NNE visible
29 Jan 7.1 03:09:42 18° ENE 03:09:42 18° ENE 03:11:07 10° NE visible
29 Jan 5.1 04:49:37 36° NW 04:49:41 36° NW 04:53:48 10° NNE visible
30 Jan 5.5 04:08:30 37° N 04:08:30 37° N 04:11:22 10° NNE visible
30 Jan 6.4 05:48:25 11° WNW 05:50:32 15° NNW 05:53:07 10° N visible
31 Jan 6.7 03:27:17 21° NE 03:27:17 21° NE 03:28:51 10° NE visible
31 Jan 6.0 05:07:12 20° NW 05:07:34 20° NNW 05:10:54 10° NNE visible
01 Feb 7.6 02:46:01 11° NE 02:46:01 11° NE 02:46:12 10° NE visible
01 Feb 6.0 04:25:55 24° NNW 04:25:55 24° NNW 04:28:35 10° NNE visible
01 Feb 6.8 06:08:05 10° NNW 06:08:51 10° NNW 06:09:39 10° N visible
02 Feb 6.6 03:44:36 20° NNE 03:44:36 20° NNE 03:46:12 10° NNE visible
02 Feb 6.6 05:24:30 12° NW 05:25:45 13° NNW 05:27:48 10° N visible
03 Feb 7.4 03:03:14 13° NNE 03:03:14 13° NNE 03:03:45 10° NNE visible
03 Feb 6.4 04:43:08 16° NNW 04:43:08 16° NNW 04:45:37 10° NNE visible
04 Feb 6.6 04:01:44 17° N 04:01:44 17° N 04:03:21 10° NNE visible
05 Feb 7.2 03:20:17 14° NNE 03:20:17 14° NNE 03:21:01 10° NNE visible
05 Feb 6.8 05:00:11 11° NNW 05:01:00 11° NNW 05:02:23 10° N visible
06 Feb 6.8 04:18:44 13° NNW 04:18:44 13° NNW 04:20:19 10° N visible
